Time,TemperatureF,DewpointF,PressureIn,WindDirection,WindDirectionDegrees,WindSpeedMPH,WindSpeedGustMPH,Humidity,HourlyPrecipIn,Conditions,Clouds,dailyrainin,SoftwareType,DateUTC
2013-03-05 00:04:00,50.9,43.6,30.01,NW,315,17.0,-999.0,76,0.00,,,0.00,Wunderground v.1.15,2013-03-05 06:04:00,
2013-03-05 00:09:00,50.9,43.6,30.01,NW,315,17.0,-999.0,76,0.00,,,0.00,Wunderground v.1.15,2013-03-05 06:09:00,
2013-03-05 00:14:00,50.9,43.6,30.01,NW,315,17.0,-999.0,76,0.00,,,0.00,Wunderground v.1.15,2013-03-05 06:14:00,
2013-03-05 00:19:00,50.9,43.6,30.01,NW,315,17.0,-999.0,76,0.00,,,0.00,Wunderground v.1.15,2013-03-05 06:19:00,
2013-03-05 00:24:00,50.1,41.8,30.04,NW,315,14.0,-999.0,73,0.00,,,0.00,Wunderground v.1.15,2013-03-05 06:24:00,
2013-03-05 00:29:00,50.1,41.8,30.04,NW,315,14.0,-999.0,73,0.00,,,0.00,Wunderground v.1.15,2013-03-05 06:29:00,
2013-03-05 00:34:00,50.1,41.8,30.04,NW,315,14.0,-999.0,73,0.00,,,0.00,Wunderground v.1.15,2013-03-05 06:34:00,
2013-03-05 00:39:00,49.6,41.3,30.05,NW,315,14.0,-999.0,73,0.00,,,0.00,Wunderground v.1.15,2013-03-05 06:39:00,
2013-03-05 00:44:00,49.6,41.3,30.05,NW,315,14.0,-999.0,73,0.00,,,0.00,Wunderground v.1.15,2013-03-05 06:44:00,
2013-03-05 00:49:00,49.6,41.3,30.05,NW,315,14.0,-999.0,73,0.00,,,0.00,Wunderground v.1.15,2013-03-05 06:49:00,
2013-03-05 00:54:00,49.2,40.6,30.04,NW,315,15.0,-999.0,72,0.00,,,0.00,Wunderground v.1.15,2013-03-05 06:54:00,
2013-03-05 00:59:00,49.2,40.6,30.04,NW,315,15.0,-999.0,72,0.00,,,0.00,Wunderground v.1.15,2013-03-05 06:59:00,
2013-03-05 01:04:00,49.2,40.6,30.04,NW,315,15.0,-999.0,72,0.00,,,0.00,Wunderground v.1.15,2013-03-05 07:04:00,
2013-03-05 01:09:00,49.2,40.2,30.07,NW,315,13.0,-999.0,71,0.00,,,0.00,Wunderground v.1.15,2013-03-05 07:09:00,
2013-03-05 01:14:00,49.2,40.2,30.07,NW,315,13.0,-999.0,71,0.00,,,0.00,Wunderground v.1.15,2013-03-05 07:14:00,
2013-03-05 01:19:00,49.2,40.2,30.07,NW,315,13.0,-999.0,71,0.00,,,0.00,Wunderground v.1.15,2013-03-05 07:19:00,
2013-03-05 01:24:00,49.3,39.9,30.08,NW,315,14.0,-999.0,70,0.00,,,0.00,Wunderground v.1.15,2013-03-05 07:24:00,
2013-03-05 01:29:00,49.3,39.9,30.08,NW,315,14.0,-999.0,70,0.00,,,0.00,Wunderground v.1.15,2013-03-05 07:29:00,
2013-03-05 01:34:00,49.3,39.9,30.08,NW,315,14.0,-999.0,70,0.00,,,0.00,Wunderground v.1.15,2013-03-05 07:34:00,
2013-03-05 01:39:00,49.4,38.9,30.08,NW,315,16.0,-999.0,67,0.00,,,0.00,Wunderground v.1.15,2013-03-05 07:39:00,
2013-03-05 01:44:00,49.4,38.9,30.08,NW,315,16.0,-999.0,67,0.00,,,0.00,Wunderground v.1.15,2013-03-05 07:44:00,
2013-03-05 01:49:00,49.4,38.9,30.08,NW,315,16.0,-999.0,67,0.00,,,0.00,Wunderground v.1.15,2013-03-05 07:49:00,
2013-03-05 01:54:00,49.4,38.5,30.11,NW,315,15.0,-999.0,66,0.00,,,0.00,Wunderground v.1.15,2013-03-05 07:54:00,
2013-03-05 01:59:00,49.4,38.5,30.11,NW,315,15.0,-999.0,66,0.00,,,0.00,Wunderground v.1.15,2013-03-05 07:59:00,
2013-03-05 02:04:00,49.4,38.5,30.11,NW,315,15.0,-999.0,66,0.00,,,0.00,Wunderground v.1.15,2013-03-05 08:04:00,
2013-03-05 02:09:00,49.2,37.5,30.12,NW,315,16.0,-999.0,64,0.00,,,0.00,Wunderground v.1.15,2013-03-05 08:09:00,
2013-03-05 02:14:00,49.2,37.5,30.12,NW,315,16.0,-999.0,64,0.00,,,0.00,Wunderground v.1.15,2013-03-05 08:14:00,
2013-03-05 02:19:00,49.2,37.5,30.12,NW,315,16.0,-999.0,64,0.00,,,0.00,Wunderground v.1.15,2013-03-05 08:19:00,
2013-03-05 02:24:00,48.9,37.3,30.13,NW,315,15.0,-999.0,64,0.00,,,0.00,Wunderground v.1.15,2013-03-05 08:24:00,
2013-03-05 02:29:00,48.9,37.3,30.13,NW,315,15.0,-999.0,64,0.00,,,0.00,Wunderground v.1.15,2013-03-05 08:29:00,
2013-03-05 02:34:00,48.9,37.3,30.13,NW,315,15.0,-999.0,64,0.00,,,0.00,Wunderground v.1.15,2013-03-05 08:34:00,
2013-03-05 02:39:00,48.6,37.0,30.14,NW,315,13.0,-999.0,64,0.00,,,0.00,Wunderground v.1.15,2013-03-05 08:39:00,
2013-03-05 02:44:00,48.6,37.0,30.14,NW,315,13.0,-999.0,64,0.00,,,0.00,Wunderground v.1.15,2013-03-05 08:44:00,
2013-03-05 02:49:00,48.6,37.0,30.14,NW,315,13.0,-999.0,64,0.00,,,0.00,Wunderground v.1.15,2013-03-05 08:49:00,
2013-03-05 02:54:00,48.3,37.1,30.16,NW,315,12.0,-999.0,65,0.00,,,0.00,Wunderground v.1.15,2013-03-05 08:54:00,
2013-03-05 02:59:00,48.3,37.1,30.16,NW,315,12.0,-999.0,65,0.00,,,0.00,Wunderground v.1.15,2013-03-05 08:59:00,
2013-03-05 03:04:00,48.3,37.1,30.16,NW,315,12.0,-999.0,65,0.00,,,0.00,Wunderground v.1.15,2013-03-05 09:04:00,
2013-03-05 03:09:00,47.9,37.1,30.17,NW,315,10.0,-999.0,66,0.00,,,0.00,Wunderground v.1.15,2013-03-05 09:09:00,
2013-03-05 03:14:00,47.9,37.1,30.17,NW,315,10.0,-999.0,66,0.00,,,0.00,Wunderground v.1.15,2013-03-05 09:14:00,
2013-03-05 03:19:00,47.9,37.1,30.17,NW,315,10.0,-999.0,66,0.00,,,0.00,Wunderground v.1.15,2013-03-05 09:19:00,
2013-03-05 03:24:00,47.6,36.8,30.17,NW,315,12.0,-999.0,66,0.00,,,0.00,Wunderground v.1.15,2013-03-05 09:24:00,
2013-03-05 03:29:00,47.6,36.8,30.17,NW,315,12.0,-999.0,66,0.00,,,0.00,Wunderground v.1.15,2013-03-05 09:29:00,
2013-03-05 03:34:00,47.6,36.8,30.17,NW,315,12.0,-999.0,66,0.00,,,0.00,Wunderground v.1.15,2013-03-05 09:34:00,
2013-03-05 03:39:00,47.2,36.4,30.19,NW,315,13.0,-999.0,66,0.00,,,0.00,Wunderground v.1.15,2013-03-05 09:39:00,
2013-03-05 03:44:00,47.2,36.4,30.19,NW,315,13.0,-999.0,66,0.00,,,0.00,Wunderground v.1.15,2013-03-05 09:44:00,
2013-03-05 03:49:00,47.2,36.4,30.19,NW,315,13.0,-999.0,66,0.00,,,0.00,Wunderground v.1.15,2013-03-05 09:49:00,
2013-03-05 03:54:00,46.9,36.1,30.20,NW,315,12.0,-999.0,66,0.00,,,0.00,Wunderground v.1.15,2013-03-05 09:54:00,
2013-03-05 03:59:00,46.9,36.1,30.20,NW,315,12.0,-999.0,66,0.00,,,0.00,Wunderground v.1.15,2013-03-05 09:59:00,
2013-03-05 04:04:00,46.9,36.1,30.20,NW,315,12.0,-999.0,66,0.00,,,0.00,Wunderground v.1.15,2013-03-05 10:04:00,
2013-03-05 04:09:00,46.9,35.7,30.21,NW,315,11.0,-999.0,65,0.00,,,0.00,Wunderground v.1.15,2013-03-05 10:09:00,
2013-03-05 04:14:00,46.9,35.7,30.21,NW,315,11.0,-999.0,65,0.00,,,0.00,Wunderground v.1.15,2013-03-05 10:14:00,
2013-03-05 04:19:00,46.9,35.7,30.21,NW,315,11.0,-999.0,65,0.00,,,0.00,Wunderground v.1.15,2013-03-05 10:19:00,
2013-03-05 04:24:00,47.2,36.0,30.23,NW,315,9.0,-999.0,65,0.00,,,0.00,Wunderground v.1.15,2013-03-05 10:24:00,
2013-03-05 04:29:00,47.2,36.0,30.23,NW,315,9.0,-999.0,65,0.00,,,0.00,Wunderground v.1.15,2013-03-05 10:29:00,
2013-03-05 04:34:00,47.2,36.0,30.23,NW,315,9.0,-999.0,65,0.00,,,0.00,Wunderground v.1.15,2013-03-05 10:34:00,
2013-03-05 04:39:00,47.5,33.9,30.24,NW,315,14.0,-999.0,59,0.00,,,0.00,Wunderground v.1.15,2013-03-05 10:39:00,
2013-03-05 04:44:00,47.5,33.9,30.24,NW,315,14.0,-999.0,59,0.00,,,0.00,Wunderground v.1.15,2013-03-05 10:44:00,
2013-03-05 04:49:00,47.5,33.9,30.24,NW,315,14.0,-999.0,59,0.00,,,0.00,Wunderground v.1.15,2013-03-05 10:49:00,
2013-03-05 04:54:00,47.9,34.7,30.26,NW,315,12.0,-999.0,60,0.00,,,0.00,Wunderground v.1.15,2013-03-05 10:54:00,
2013-03-05 04:59:00,47.9,34.7,30.26,NW,315,12.0,-999.0,60,0.00,,,0.00,Wunderground v.1.15,2013-03-05 10:59:00,
2013-03-05 05:04:00,47.9,34.7,30.26,NW,315,12.0,-999.0,60,0.00,,,0.00,Wunderground v.1.15,2013-03-05 11:04:00,
2013-03-05 05:09:00,47.9,33.8,30.27,NW,315,15.0,-999.0,58,0.00,,,0.00,Wunderground v.1.15,2013-03-05 11:09:00,
2013-03-05 05:14:00,47.9,33.8,30.27,NW,315,15.0,-999.0,58,0.00,,,0.00,Wunderground v.1.15,2013-03-05 11:14:00,
2013-03-05 05:19:00,47.9,33.8,30.27,NW,315,15.0,-999.0,58,0.00,,,0.00,Wunderground v.1.15,2013-03-05 11:19:00,
2013-03-05 05:24:00,48.1,34.0,30.27,NW,315,15.0,-999.0,58,0.00,,,0.00,Wunderground v.1.15,2013-03-05 11:24:00,
2013-03-05 05:29:00,48.1,34.0,30.27,NW,315,15.0,-999.0,58,0.00,,,0.00,Wunderground v.1.15,2013-03-05 11:29:00,
2013-03-05 05:34:00,48.1,34.0,30.27,NW,315,15.0,-999.0,58,0.00,,,0.00,Wunderground v.1.15,2013-03-05 11:34:00,
2013-03-05 05:39:00,48.6,34.5,30.27,NW,315,12.0,-999.0,58,0.00,,,0.00,Wunderground v.1.15,2013-03-05 11:39:00,
2013-03-05 05:44:00,48.6,34.5,30.27,NW,315,12.0,-999.0,58,0.00,,,0.00,Wunderground v.1.15,2013-03-05 11:44:00,
2013-03-05 05:49:00,48.6,34.5,30.27,NW,315,12.0,-999.0,58,0.00,,,0.00,Wunderground v.1.15,2013-03-05 11:49:00,
2013-03-05 05:54:00,49.5,33.1,30.28,NW,315,13.0,-999.0,53,0.00,,,0.00,Wunderground v.1.15,2013-03-05 11:54:00,
2013-03-05 05:59:00,49.5,33.1,30.28,NW,315,13.0,-999.0,53,0.00,,,0.00,Wunderground v.1.15,2013-03-05 11:59:00,
2013-03-05 06:04:00,49.5,33.1,30.28,NW,315,13.0,-999.0,53,0.00,,,0.00,Wunderground v.1.15,2013-03-05 12:04:00,
2013-03-05 06:09:00,49.9,34.8,30.28,NW,315,12.0,-999.0,56,0.00,,,0.00,Wunderground v.1.15,2013-03-05 12:09:00,
2013-03-05 06:14:00,49.9,34.8,30.28,NW,315,12.0,-999.0,56,0.00,,,0.00,Wunderground v.1.15,2013-03-05 12:14:00,
2013-03-05 06:19:00,49.9,34.8,30.28,NW,315,12.0,-999.0,56,0.00,,,0.00,Wunderground v.1.15,2013-03-05 12:19:00,
2013-03-05 06:24:00,51.1,34.5,30.28,NW,315,9.0,-999.0,53,0.00,,,0.00,Wunderground v.1.15,2013-03-05 12:24:00,
2013-03-05 06:29:00,51.1,34.5,30.28,NW,315,9.0,-999.0,53,0.00,,,0.00,Wunderground v.1.15,2013-03-05 12:29:00,
2013-03-05 06:34:00,51.1,34.5,30.28,NW,315,9.0,-999.0,53,0.00,,,0.00,Wunderground v.1.15,2013-03-05 12:34:00,
2013-03-05 06:39:00,51.3,32.3,30.29,NW,315,13.0,-999.0,48,0.00,,,0.00,Wunderground v.1.15,2013-03-05 12:39:00,
2013-03-05 06:44:00,51.3,32.3,30.29,NW,315,13.0,-999.0,48,0.00,,,0.00,Wunderground v.1.15,2013-03-05 12:44:00,
2013-03-05 06:49:00,51.3,32.3,30.29,NW,315,13.0,-999.0,48,0.00,,,0.00,Wunderground v.1.15,2013-03-05 12:49:00,
2013-03-05 06:54:00,51.1,32.1,30.29,NW,315,16.0,-999.0,48,0.00,,,0.00,Wunderground v.1.15,2013-03-05 12:54:00,
2013-03-05 06:59:00,51.1,32.1,30.29,NW,315,16.0,-999.0,48,0.00,,,0.00,Wunderground v.1.15,2013-03-05 12:59:00,
2013-03-05 07:04:00,51.1,32.1,30.29,NW,315,16.0,-999.0,48,0.00,,,0.00,Wunderground v.1.15,2013-03-05 13:04:00,
2013-03-05 07:09:00,52.5,33.9,30.30,NW,315,12.0,-999.0,49,0.00,,,0.00,Wunderground v.1.15,2013-03-05 13:09:00,
2013-03-05 07:14:00,52.5,33.9,30.30,NW,315,12.0,-999.0,49,0.00,,,0.00,Wunderground v.1.15,2013-03-05 13:14:00,
2013-03-05 07:19:00,52.5,33.9,30.30,NW,315,12.0,-999.0,49,0.00,,,0.00,Wunderground v.1.15,2013-03-05 13:19:00,
2013-03-05 07:24:00,54.0,33.7,30.30,WNW,293,9.0,-999.0,46,0.00,,,0.00,Wunderground v.1.15,2013-03-05 13:24:00,
2013-03-05 07:29:00,54.0,33.7,30.30,WNW,293,9.0,-999.0,46,0.00,,,0.00,Wunderground v.1.15,2013-03-05 13:29:00,
2013-03-05 07:34:00,54.0,33.7,30.30,WNW,293,9.0,-999.0,46,0.00,,,0.00,Wunderground v.1.15,2013-03-05 13:34:00,
2013-03-05 07:39:00,54.2,33.3,30.31,NW,315,11.0,-999.0,45,0.00,,,0.00,Wunderground v.1.15,2013-03-05 13:39:00,
2013-03-05 07:44:00,54.2,33.3,30.31,NW,315,11.0,-999.0,45,0.00,,,0.00,Wunderground v.1.15,2013-03-05 13:44:00,
2013-03-05 07:49:00,54.2,33.3,30.31,NW,315,11.0,-999.0,45,0.00,,,0.00,Wunderground v.1.15,2013-03-05 13:49:00,
2013-03-05 07:54:00,54.9,32.2,30.32,NW,315,11.0,-999.0,42,0.00,,,0.00,Wunderground v.1.15,2013-03-05 13:54:00,
2013-03-05 07:59:00,54.9,32.2,30.32,NW,315,11.0,-999.0,42,0.00,,,0.00,Wunderground v.1.15,2013-03-05 13:59:00,
2013-03-05 08:04:00,54.9,32.2,30.32,NW,315,11.0,-999.0,42,0.00,,,0.00,Wunderground v.1.15,2013-03-05 14:04:00,
2013-03-05 08:09:00,55.5,29.6,30.32,NW,315,13.0,-999.0,37,0.00,,,0.00,Wunderground v.1.15,2013-03-05 14:09:00,
2013-03-05 08:14:00,55.5,29.6,30.32,NW,315,13.0,-999.0,37,0.00,,,0.00,Wunderground v.1.15,2013-03-05 14:14:00,
2013-03-05 08:19:00,55.5,29.6,30.32,NW,315,13.0,-999.0,37,0.00,,,0.00,Wunderground v.1.15,2013-03-05 14:19:00,
2013-03-05 08:24:00,55.5,30.3,30.32,NW,315,13.0,-999.0,38,0.00,,,0.00,Wunderground v.1.15,2013-03-05 14:24:00,
2013-03-05 08:29:00,55.5,30.3,30.32,NW,315,13.0,-999.0,38,0.00,,,0.00,Wunderground v.1.15,2013-03-05 14:29:00,
2013-03-05 08:34:00,55.5,30.3,30.32,NW,315,13.0,-999.0,38,0.00,,,0.00,Wunderground v.1.15,2013-03-05 14:34:00,
2013-03-05 08:39:00,56.4,29.7,30.32,NW,315,13.0,-999.0,36,0.00,,,0.00,Wunderground v.1.15,2013-03-05 14:39:00,
2013-03-05 08:44:00,56.4,29.7,30.32,NW,315,13.0,-999.0,36,0.00,,,0.00,Wunderground v.1.15,2013-03-05 14:44:00,
2013-03-05 08:49:00,56.4,29.7,30.32,NW,315,13.0,-999.0,36,0.00,,,0.00,Wunderground v.1.15,2013-03-05 14:49:00,
2013-03-05 08:54:00,55.5,30.3,30.32,NW,315,15.0,-999.0,38,0.00,,,0.00,Wunderground v.1.15,2013-03-05 14:54:00,
2013-03-05 08:59:00,55.5,30.3,30.32,NW,315,15.0,-999.0,38,0.00,,,0.00,Wunderground v.1.15,2013-03-05 14:59:00,
2013-03-05 09:04:00,55.5,30.3,30.32,NW,315,15.0,-999.0,38,0.00,,,0.00,Wunderground v.1.15,2013-03-05 15:04:00,
2013-03-05 09:09:00,55.3,28.8,30.32,NW,315,15.0,-999.0,36,0.00,,,0.00,Wunderground v.1.15,2013-03-05 15:09:00,
2013-03-05 09:14:00,55.3,28.8,30.32,NW,315,15.0,-999.0,36,0.00,,,0.00,Wunderground v.1.15,2013-03-05 15:14:00,
2013-03-05 09:19:00,55.3,28.8,30.32,NW,315,15.0,-999.0,36,0.00,,,0.00,Wunderground v.1.15,2013-03-05 15:19:00,
2013-03-05 09:24:00,55.3,28.8,30.32,NW,315,14.0,-999.0,36,0.00,,,0.00,Wunderground v.1.15,2013-03-05 15:24:00,
2013-03-05 09:29:00,55.3,28.8,30.32,NW,315,14.0,-999.0,36,0.00,,,0.00,Wunderground v.1.15,2013-03-05 15:29:00,
2013-03-05 09:34:00,55.3,28.8,30.32,NW,315,14.0,-999.0,36,0.00,,,0.00,Wunderground v.1.15,2013-03-05 15:34:00,
2013-03-05 09:39:00,55.9,30.0,30.31,NW,315,14.0,-999.0,37,0.00,,,0.00,Wunderground v.1.15,2013-03-05 15:39:00,
2013-03-05 09:44:00,55.9,30.0,30.31,NW,315,14.0,-999.0,37,0.00,,,0.00,Wunderground v.1.15,2013-03-05 15:44:00,
2013-03-05 09:49:00,55.9,30.0,30.31,NW,315,14.0,-999.0,37,0.00,,,0.00,Wunderground v.1.15,2013-03-05 15:49:00,
2013-03-05 09:54:00,56.8,28.7,30.32,NW,315,13.0,-999.0,34,0.00,,,0.00,Wunderground v.1.15,2013-03-05 15:54:00,
2013-03-05 09:59:00,56.8,28.7,30.32,NW,315,13.0,-999.0,34,0.00,,,0.00,Wunderground v.1.15,2013-03-05 15:59:00,
2013-03-05 10:04:00,56.8,28.7,30.32,NW,315,13.0,-999.0,34,0.00,,,0.00,Wunderground v.1.15,2013-03-05 16:04:00,
2013-03-05 10:09:00,57.0,28.9,30.31,NW,315,10.0,-999.0,34,0.00,,,0.00,Wunderground v.1.15,2013-03-05 16:09:00,
2013-03-05 10:14:00,57.0,28.9,30.31,NW,315,10.0,-999.0,34,0.00,,,0.00,Wunderground v.1.15,2013-03-05 16:14:00,
2013-03-05 10:19:00,57.0,28.9,30.31,NW,315,10.0,-999.0,34,0.00,,,0.00,Wunderground v.1.15,2013-03-05 16:19:00,
2013-03-05 10:24:00,56.9,28.8,30.31,NW,315,11.0,-999.0,34,0.00,,,0.00,Wunderground v.1.15,2013-03-05 16:24:00,
2013-03-05 10:29:00,56.9,28.8,30.31,NW,315,11.0,-999.0,34,0.00,,,0.00,Wunderground v.1.15,2013-03-05 16:29:00,
2013-03-05 10:34:00,56.9,28.8,30.31,NW,315,11.0,-999.0,34,0.00,,,0.00,Wunderground v.1.15,2013-03-05 16:34:00,
2013-03-05 10:39:00,56.7,28.6,30.30,NW,315,11.0,-999.0,34,0.00,,,0.00,Wunderground v.1.15,2013-03-05 16:39:00,
2013-03-05 10:44:00,56.7,28.6,30.30,NW,315,11.0,-999.0,34,0.00,,,0.00,Wunderground v.1.15,2013-03-05 16:44:00,
2013-03-05 10:49:00,56.7,28.6,30.30,NW,315,11.0,-999.0,34,0.00,,,0.00,Wunderground v.1.15,2013-03-05 16:49:00,
2013-03-05 10:54:00,57.5,28.6,30.30,NW,315,11.0,-999.0,33,0.00,,,0.00,Wunderground v.1.15,2013-03-05 16:54:00,
2013-03-05 10:59:00,57.5,28.6,30.30,NW,315,11.0,-999.0,33,0.00,,,0.00,Wunderground v.1.15,2013-03-05 16:59:00,
2013-03-05 11:04:00,57.5,28.6,30.30,NW,315,11.0,-999.0,33,0.00,,,0.00,Wunderground v.1.15,2013-03-05 17:04:00,
2013-03-05 11:09:00,57.5,29.3,30.30,NW,315,9.0,-999.0,34,0.00,,,0.00,Wunderground v.1.15,2013-03-05 17:09:00,
2013-03-05 11:14:00,57.5,29.3,30.30,NW,315,9.0,-999.0,34,0.00,,,0.00,Wunderground v.1.15,2013-03-05 17:14:00,
2013-03-05 11:19:00,57.5,29.3,30.30,NW,315,9.0,-999.0,34,0.00,,,0.00,Wunderground v.1.15,2013-03-05 17:19:00,
2013-03-05 11:24:00,57.1,27.5,30.30,NW,315,12.0,-999.0,32,0.00,,,0.00,Wunderground v.1.15,2013-03-05 17:24:00,
2013-03-05 11:29:00,57.1,27.5,30.30,NW,315,12.0,-999.0,32,0.00,,,0.00,Wunderground v.1.15,2013-03-05 17:29:00,
2013-03-05 11:34:00,57.1,27.5,30.30,NW,315,12.0,-999.0,32,0.00,,,0.00,Wunderground v.1.15,2013-03-05 17:34:00,
2013-03-05 11:39:00,57.4,27.7,30.30,NW,315,10.0,-999.0,32,0.00,,,0.00,Wunderground v.1.15,2013-03-05 17:39:00,
2013-03-05 11:44:00,57.4,27.7,30.30,NW,315,10.0,-999.0,32,0.00,,,0.00,Wunderground v.1.15,2013-03-05 17:44:00,
2013-03-05 11:49:00,57.4,27.7,30.30,NW,315,10.0,-999.0,32,0.00,,,0.00,Wunderground v.1.15,2013-03-05 17:49:00,
2013-03-05 11:54:00,57.5,28.6,30.29,NW,315,8.0,-999.0,33,0.00,,,0.00,Wunderground v.1.15,2013-03-05 17:54:00,
2013-03-05 11:59:00,57.5,28.6,30.29,NW,315,8.0,-999.0,33,0.00,,,0.00,Wunderground v.1.15,2013-03-05 17:59:00,
2013-03-05 12:04:00,57.5,28.6,30.29,NW,315,8.0,-999.0,33,0.00,,,0.00,Wunderground v.1.15,2013-03-05 18:04:00,
2013-03-05 12:09:00,56.9,28.1,30.30,NW,315,10.0,-999.0,33,0.00,,,0.00,Wunderground v.1.15,2013-03-05 18:09:00,
2013-03-05 12:14:00,56.9,28.1,30.30,NW,315,10.0,-999.0,33,0.00,,,0.00,Wunderground v.1.15,2013-03-05 18:14:00,
2013-03-05 12:19:00,56.9,28.1,30.30,NW,315,10.0,-999.0,33,0.00,,,0.00,Wunderground v.1.15,2013-03-05 18:19:00,
2013-03-05 12:24:00,58.1,26.8,30.30,WNW,293,6.0,-999.0,30,0.00,,,0.00,Wunderground v.1.15,2013-03-05 18:24:00,
2013-03-05 12:29:00,58.1,26.8,30.30,WNW,293,6.0,-999.0,30,0.00,,,0.00,Wunderground v.1.15,2013-03-05 18:29:00,
2013-03-05 12:34:00,58.1,26.8,30.30,WNW,293,6.0,-999.0,30,0.00,,,0.00,Wunderground v.1.15,2013-03-05 18:34:00,
2013-03-05 12:39:00,57.7,25.6,30.30,NW,315,7.0,-999.0,29,0.00,,,0.00,Wunderground v.1.15,2013-03-05 18:39:00,
2013-03-05 12:44:00,57.7,25.6,30.30,NW,315,7.0,-999.0,29,0.00,,,0.00,Wunderground v.1.15,2013-03-05 18:44:00,
2013-03-05 12:49:00,57.7,25.6,30.30,NW,315,7.0,-999.0,29,0.00,,,0.00,Wunderground v.1.15,2013-03-05 18:49:00,
2013-03-05 12:54:00,57.2,26.8,30.30,NW,315,8.0,-999.0,31,0.00,,,0.00,Wunderground v.1.15,2013-03-05 18:54:00,
2013-03-05 12:59:00,57.2,26.8,30.30,NW,315,8.0,-999.0,31,0.00,,,0.00,Wunderground v.1.15,2013-03-05 18:59:00,
2013-03-05 13:04:00,57.2,26.8,30.30,NW,315,8.0,-999.0,31,0.00,,,0.00,Wunderground v.1.15,2013-03-05 19:04:00,
2013-03-05 13:14:00,56.8,25.7,30.30,NW,315,8.0,-999.0,30,0.00,,,0.00,Wunderground v.1.15,2013-03-05 19:14:00,
2013-03-05 13:19:00,56.8,25.7,30.30,NW,315,8.0,-999.0,30,0.00,,,0.00,Wunderground v.1.15,2013-03-05 19:19:00,
2013-03-05 13:24:00,57.0,25.0,30.29,WNW,293,6.0,-999.0,29,0.00,,,0.00,Wunderground v.1.15,2013-03-05 19:24:00,
2013-03-05 13:29:00,57.0,25.0,30.29,WNW,293,6.0,-999.0,29,0.00,,,0.00,Wunderground v.1.15,2013-03-05 19:29:00,
2013-03-05 13:34:00,57.0,25.0,30.29,WNW,293,6.0,-999.0,29,0.00,,,0.00,Wunderground v.1.15,2013-03-05 19:34:00,
2013-03-05 13:39:00,56.3,26.0,30.30,NW,315,6.0,-999.0,31,0.00,,,0.00,Wunderground v.1.15,2013-03-05 19:39:00,
2013-03-05 13:44:00,56.3,26.0,30.30,NW,315,6.0,-999.0,31,0.00,,,0.00,Wunderground v.1.15,2013-03-05 19:44:00,
2013-03-05 13:49:00,56.3,26.0,30.30,NW,315,6.0,-999.0,31,0.00,,,0.00,Wunderground v.1.15,2013-03-05 19:49:00,
2013-03-05 13:54:00,56.0,25.8,30.30,NW,315,6.0,-999.0,31,0.00,,,0.00,Wunderground v.1.15,2013-03-05 19:54:00,
2013-03-05 13:59:00,56.0,25.8,30.30,NW,315,6.0,-999.0,31,0.00,,,0.00,Wunderground v.1.15,2013-03-05 19:59:00,
2013-03-05 14:04:00,56.0,25.8,30.30,NW,315,6.0,-999.0,31,0.00,,,0.00,Wunderground v.1.15,2013-03-05 20:04:00,
2013-03-05 14:09:00,55.0,24.9,30.30,NW,315,7.0,-999.0,31,0.00,,,0.00,Wunderground v.1.15,2013-03-05 20:09:00,
2013-03-05 14:14:00,55.0,24.9,30.30,NW,315,7.0,-999.0,31,0.00,,,0.00,Wunderground v.1.15,2013-03-05 20:14:00,
2013-03-05 14:19:00,55.0,24.9,30.30,NW,315,7.0,-999.0,31,0.00,,,0.00,Wunderground v.1.15,2013-03-05 20:19:00,
2013-03-05 14:24:00,54.8,23.9,30.30,NW,315,4.0,-999.0,30,0.00,,,0.00,Wunderground v.1.15,2013-03-05 20:24:00,
2013-03-05 14:29:00,54.8,23.9,30.30,NW,315,4.0,-999.0,30,0.00,,,0.00,Wunderground v.1.15,2013-03-05 20:29:00,
2013-03-05 14:34:00,54.8,23.9,30.30,NW,315,4.0,-999.0,30,0.00,,,0.00,Wunderground v.1.15,2013-03-05 20:34:00,
2013-03-05 14:39:00,54.2,24.2,30.31,NW,315,5.0,-999.0,31,0.00,,,0.00,Wunderground v.1.15,2013-03-05 20:39:00,
2013-03-05 14:44:00,54.2,24.2,30.31,NW,315,5.0,-999.0,31,0.00,,,0.00,Wunderground v.1.15,2013-03-05 20:44:00,
2013-03-05 14:49:00,54.2,24.2,30.31,NW,315,5.0,-999.0,31,0.00,,,0.00,Wunderground v.1.15,2013-03-05 20:49:00,
2013-03-05 14:54:00,53.3,25.6,30.32,NW,315,3.0,-999.0,34,0.00,,,0.00,Wunderground v.1.15,2013-03-05 20:54:00,
2013-03-05 14:59:00,53.3,25.6,30.32,NW,315,3.0,-999.0,34,0.00,,,0.00,Wunderground v.1.15,2013-03-05 20:59:00,
2013-03-05 15:04:00,53.3,25.6,30.32,NW,315,3.0,-999.0,34,0.00,,,0.00,Wunderground v.1.15,2013-03-05 21:04:00,
2013-03-05 15:09:00,52.6,25.7,30.32,NW,315,1.0,-999.0,35,0.00,,,0.00,Wunderground v.1.15,2013-03-05 21:09:00,
2013-03-05 15:14:00,52.6,25.7,30.32,NW,315,1.0,-999.0,35,0.00,,,0.00,Wunderground v.1.15,2013-03-05 21:14:00,
2013-03-05 15:19:00,52.6,25.7,30.32,NW,315,1.0,-999.0,35,0.00,,,0.00,Wunderground v.1.15,2013-03-05 21:19:00,
2013-03-05 15:24:00,51.6,24.1,30.33,WNW,293,1.0,-999.0,34,0.00,,,0.00,Wunderground v.1.15,2013-03-05 21:24:00,
2013-03-05 15:29:00,51.6,24.1,30.33,WNW,293,1.0,-999.0,34,0.00,,,0.00,Wunderground v.1.15,2013-03-05 21:29:00,
2013-03-05 15:34:00,51.6,24.1,30.33,WNW,293,1.0,-999.0,34,0.00,,,0.00,Wunderground v.1.15,2013-03-05 21:34:00,
2013-03-05 15:39:00,50.6,24.6,30.33,WNW,293,1.0,-999.0,36,0.00,,,0.00,Wunderground v.1.15,2013-03-05 21:39:00,
2013-03-05 15:44:00,50.6,24.6,30.33,WNW,293,1.0,-999.0,36,0.00,,,0.00,Wunderground v.1.15,2013-03-05 21:44:00,
2013-03-05 15:49:00,50.6,24.6,30.33,WNW,293,1.0,-999.0,36,0.00,,,0.00,Wunderground v.1.15,2013-03-05 21:49:00,
2013-03-05 15:54:00,49.3,23.4,30.34,WNW,293,0.0,-999.0,36,0.00,,,0.00,Wunderground v.1.15,2013-03-05 21:54:00,
2013-03-05 15:59:00,49.3,23.4,30.34,WNW,293,0.0,-999.0,36,0.00,,,0.00,Wunderground v.1.15,2013-03-05 21:59:00,
2013-03-05 16:04:00,49.3,23.4,30.34,WNW,293,0.0,-999.0,36,0.00,,,0.00,Wunderground v.1.15,2013-03-05 22:04:00,
2013-03-05 16:09:00,47.9,23.5,30.34,NW,315,0.0,-999.0,38,0.00,,,0.00,Wunderground v.1.15,2013-03-05 22:09:00,
2013-03-05 16:14:00,47.9,23.5,30.34,NW,315,0.0,-999.0,38,0.00,,,0.00,Wunderground v.1.15,2013-03-05 22:14:00,
2013-03-05 16:19:00,47.9,23.5,30.34,NW,315,0.0,-999.0,38,0.00,,,0.00,Wunderground v.1.15,2013-03-05 22:19:00,
2013-03-05 16:24:00,46.4,23.4,30.35,NW,315,0.0,-999.0,40,0.00,,,0.00,Wunderground v.1.15,2013-03-05 22:24:00,
2013-03-05 16:29:00,46.4,23.4,30.35,NW,315,0.0,-999.0,40,0.00,,,0.00,Wunderground v.1.15,2013-03-05 22:29:00,
2013-03-05 16:34:00,46.4,23.4,30.35,NW,315,0.0,-999.0,40,0.00,,,0.00,Wunderground v.1.15,2013-03-05 22:34:00,
2013-03-05 16:39:00,45.1,23.9,30.36,WNW,293,0.0,-999.0,43,0.00,,,0.00,Wunderground v.1.15,2013-03-05 22:39:00,
2013-03-05 16:44:00,45.1,23.9,30.36,WNW,293,0.0,-999.0,43,0.00,,,0.00,Wunderground v.1.15,2013-03-05 22:44:00,
2013-03-05 16:49:00,45.1,23.9,30.36,WNW,293,0.0,-999.0,43,0.00,,,0.00,Wunderground v.1.15,2013-03-05 22:49:00,
2013-03-05 16:54:00,44.2,24.2,30.36,WNW,293,0.0,-999.0,45,0.00,,,0.00,Wunderground v.1.15,2013-03-05 22:54:00,
2013-03-05 16:59:00,44.2,24.2,30.36,WNW,293,0.0,-999.0,45,0.00,,,0.00,Wunderground v.1.15,2013-03-05 22:59:00,
2013-03-05 17:04:00,44.2,24.2,30.36,WNW,293,0.0,-999.0,45,0.00,,,0.00,Wunderground v.1.15,2013-03-05 23:04:00,
2013-03-05 17:09:00,43.8,23.8,30.35,WNW,293,0.0,-999.0,45,0.00,,,0.00,Wunderground v.1.15,2013-03-05 23:09:00,
2013-03-05 17:14:00,43.8,23.8,30.35,WNW,293,0.0,-999.0,45,0.00,,,0.00,Wunderground v.1.15,2013-03-05 23:14:00,
2013-03-05 17:19:00,43.8,23.8,30.35,WNW,293,0.0,-999.0,45,0.00,,,0.00,Wunderground v.1.15,2013-03-05 23:19:00,
2013-03-05 17:24:00,43.5,24.1,30.36,NW,315,0.0,-999.0,46,0.00,,,0.00,Wunderground v.1.15,2013-03-05 23:24:00,
2013-03-05 17:29:00,43.5,24.1,30.36,NW,315,0.0,-999.0,46,0.00,,,0.00,Wunderground v.1.15,2013-03-05 23:29:00,
2013-03-05 17:34:00,43.5,24.1,30.36,NW,315,0.0,-999.0,46,0.00,,,0.00,Wunderground v.1.15,2013-03-05 23:34:00,
2013-03-05 17:39:00,43.2,24.3,30.36,NW,315,0.0,-999.0,47,0.00,,,0.00,Wunderground v.1.15,2013-03-05 23:39:00,
2013-03-05 17:44:00,43.2,24.3,30.36,NW,315,0.0,-999.0,47,0.00,,,0.00,Wunderground v.1.15,2013-03-05 23:44:00,
2013-03-05 17:49:00,43.2,24.3,30.36,NW,315,0.0,-999.0,47,0.00,,,0.00,Wunderground v.1.15,2013-03-05 23:49:00,
2013-03-05 17:54:00,42.6,23.8,30.37,WNW,293,1.0,-999.0,47,0.00,,,0.00,Wunderground v.1.15,2013-03-05 23:54:00,
2013-03-05 17:59:00,42.6,23.8,30.37,WNW,293,1.0,-999.0,47,0.00,,,0.00,Wunderground v.1.15,2013-03-05 23:59:00,
2013-03-05 18:04:00,42.6,23.8,30.37,WNW,293,1.0,-999.0,47,0.00,,,0.00,Wunderground v.1.15,2013-03-06 00:04:00,
2013-03-05 18:09:00,42.6,23.2,30.37,WNW,293,1.0,-999.0,46,0.00,,,0.00,Wunderground v.1.15,2013-03-06 00:09:00,
2013-03-05 18:14:00,42.6,23.2,30.37,WNW,293,1.0,-999.0,46,0.00,,,0.00,Wunderground v.1.15,2013-03-06 00:14:00,
2013-03-05 18:19:00,42.6,23.2,30.37,WNW,293,1.0,-999.0,46,0.00,,,0.00,Wunderground v.1.15,2013-03-06 00:19:00,
2013-03-05 18:24:00,42.7,24.4,30.37,NW,315,1.0,-999.0,48,0.00,,,0.00,Wunderground v.1.15,2013-03-06 00:24:00,
2013-03-05 18:29:00,42.7,24.4,30.37,NW,315,1.0,-999.0,48,0.00,,,0.00,Wunderground v.1.15,2013-03-06 00:29:00,
2013-03-05 18:34:00,42.7,24.4,30.37,NW,315,1.0,-999.0,48,0.00,,,0.00,Wunderground v.1.15,2013-03-06 00:34:00,
2013-03-05 18:39:00,42.6,23.8,30.39,NW,315,0.0,-999.0,47,0.00,,,0.00,Wunderground v.1.15,2013-03-06 00:39:00,
2013-03-05 18:44:00,42.6,23.8,30.39,NW,315,0.0,-999.0,47,0.00,,,0.00,Wunderground v.1.15,2013-03-06 00:44:00,
2013-03-05 18:49:00,42.6,23.8,30.39,NW,315,0.0,-999.0,47,0.00,,,0.00,Wunderground v.1.15,2013-03-06 00:49:00,
2013-03-05 18:54:00,42.1,23.8,30.38,NW,315,0.0,-999.0,48,0.00,,,0.00,Wunderground v.1.15,2013-03-06 00:54:00,
2013-03-05 18:59:00,42.1,23.8,30.38,NW,315,0.0,-999.0,48,0.00,,,0.00,Wunderground v.1.15,2013-03-06 00:59:00,
2013-03-05 19:04:00,42.1,23.8,30.38,NW,315,0.0,-999.0,48,0.00,,,0.00,Wunderground v.1.15,2013-03-06 01:04:00,
2013-03-05 19:09:00,42.0,24.2,30.39,NW,315,2.0,-999.0,49,0.00,,,0.00,Wunderground v.1.15,2013-03-06 01:09:00,
2013-03-05 19:14:00,42.0,24.2,30.39,NW,315,2.0,-999.0,49,0.00,,,0.00,Wunderground v.1.15,2013-03-06 01:14:00,
2013-03-05 19:19:00,42.0,24.2,30.39,NW,315,2.0,-999.0,49,0.00,,,0.00,Wunderground v.1.15,2013-03-06 01:19:00,
2013-03-05 19:24:00,42.4,25.1,30.39,NW,315,3.0,-999.0,50,0.00,,,0.00,Wunderground v.1.15,2013-03-06 01:24:00,
2013-03-05 19:29:00,42.4,25.1,30.39,NW,315,3.0,-999.0,50,0.00,,,0.00,Wunderground v.1.15,2013-03-06 01:29:00,
2013-03-05 19:34:00,42.4,25.1,30.39,NW,315,3.0,-999.0,50,0.00,,,0.00,Wunderground v.1.15,2013-03-06 01:34:00,
2013-03-05 19:39:00,42.5,25.1,30.39,NW,315,3.0,-999.0,50,0.00,,,0.00,Wunderground v.1.15,2013-03-06 01:39:00,
2013-03-05 19:44:00,42.5,25.1,30.39,NW,315,3.0,-999.0,50,0.00,,,0.00,Wunderground v.1.15,2013-03-06 01:44:00,
2013-03-05 19:49:00,42.5,25.1,30.39,NW,315,3.0,-999.0,50,0.00,,,0.00,Wunderground v.1.15,2013-03-06 01:49:00,
2013-03-05 19:54:00,42.5,24.7,30.39,NW,315,2.0,-999.0,49,0.00,,,0.00,Wunderground v.1.15,2013-03-06 01:54:00,
2013-03-05 19:59:00,42.5,24.7,30.39,NW,315,2.0,-999.0,49,0.00,,,0.00,Wunderground v.1.15,2013-03-06 01:59:00,
2013-03-05 20:04:00,42.5,24.7,30.39,NW,315,2.0,-999.0,49,0.00,,,0.00,Wunderground v.1.15,2013-03-06 02:04:00,
2013-03-05 20:09:00,42.7,25.3,30.38,NW,315,2.0,-999.0,50,0.00,,,0.00,Wunderground v.1.15,2013-03-06 02:09:00,
2013-03-05 20:14:00,42.7,25.3,30.38,NW,315,2.0,-999.0,50,0.00,,,0.00,Wunderground v.1.15,2013-03-06 02:14:00,
2013-03-05 20:19:00,42.7,25.3,30.38,NW,315,2.0,-999.0,50,0.00,,,0.00,Wunderground v.1.15,2013-03-06 02:19:00,
2013-03-05 20:24:00,42.4,25.5,30.38,NW,315,2.0,-999.0,51,0.00,,,0.00,Wunderground v.1.15,2013-03-06 02:24:00,
2013-03-05 20:29:00,42.4,25.5,30.38,NW,315,2.0,-999.0,51,0.00,,,0.00,Wunderground v.1.15,2013-03-06 02:29:00,
2013-03-05 20:34:00,42.4,25.5,30.38,NW,315,2.0,-999.0,51,0.00,,,0.00,Wunderground v.1.15,2013-03-06 02:34:00,
2013-03-05 20:39:00,41.9,26.0,30.39,NW,315,2.0,-999.0,53,0.00,,,0.00,Wunderground v.1.15,2013-03-06 02:39:00,
2013-03-05 20:44:00,41.9,26.0,30.39,NW,315,2.0,-999.0,53,0.00,,,0.00,Wunderground v.1.15,2013-03-06 02:44:00,
2013-03-05 20:49:00,41.9,26.0,30.39,NW,315,2.0,-999.0,53,0.00,,,0.00,Wunderground v.1.15,2013-03-06 02:49:00,
2013-03-05 20:54:00,41.1,25.7,30.39,NW,315,3.0,-999.0,54,0.00,,,0.00,Wunderground v.1.15,2013-03-06 02:54:00,
2013-03-05 20:59:00,41.1,25.7,30.39,NW,315,3.0,-999.0,54,0.00,,,0.00,Wunderground v.1.15,2013-03-06 02:59:00,
2013-03-05 21:04:00,41.1,25.7,30.39,NW,315,3.0,-999.0,54,0.00,,,0.00,Wunderground v.1.15,2013-03-06 03:04:00,
2013-03-05 21:09:00,40.6,25.7,30.40,NW,315,1.0,-999.0,55,0.00,,,0.00,Wunderground v.1.15,2013-03-06 03:09:00,
2013-03-05 21:14:00,40.6,25.7,30.40,NW,315,1.0,-999.0,55,0.00,,,0.00,Wunderground v.1.15,2013-03-06 03:14:00,
2013-03-05 21:19:00,40.6,25.7,30.40,NW,315,1.0,-999.0,55,0.00,,,0.00,Wunderground v.1.15,2013-03-06 03:19:00,
2013-03-05 21:24:00,40.3,25.4,30.40,NW,315,1.0,-999.0,55,0.00,,,0.00,Wunderground v.1.15,2013-03-06 03:24:00,
2013-03-05 21:29:00,40.3,25.4,30.40,NW,315,1.0,-999.0,55,0.00,,,0.00,Wunderground v.1.15,2013-03-06 03:29:00,
2013-03-05 21:34:00,40.3,25.4,30.40,NW,315,1.0,-999.0,55,0.00,,,0.00,Wunderground v.1.15,2013-03-06 03:34:00,
2013-03-05 21:39:00,40.5,25.6,30.40,NW,315,2.0,-999.0,55,0.00,,,0.00,Wunderground v.1.15,2013-03-06 03:39:00,
2013-03-05 21:44:00,40.5,25.6,30.40,NW,315,2.0,-999.0,55,0.00,,,0.00,Wunderground v.1.15,2013-03-06 03:44:00,
2013-03-05 21:49:00,40.5,25.6,30.40,NW,315,2.0,-999.0,55,0.00,,,0.00,Wunderground v.1.15,2013-03-06 03:49:00,
2013-03-05 21:54:00,40.4,25.5,30.40,NW,315,3.0,-999.0,55,0.00,,,0.00,Wunderground v.1.15,2013-03-06 03:54:00,
2013-03-05 21:59:00,40.4,25.5,30.40,NW,315,3.0,-999.0,55,0.00,,,0.00,Wunderground v.1.15,2013-03-06 03:59:00,
2013-03-05 22:04:00,40.4,25.5,30.40,NW,315,3.0,-999.0,55,0.00,,,0.00,Wunderground v.1.15,2013-03-06 04:04:00,
2013-03-05 22:09:00,39.9,25.9,30.41,NW,315,1.0,-999.0,57,0.00,,,0.00,Wunderground v.1.15,2013-03-06 04:09:00,
2013-03-05 22:14:00,39.9,25.9,30.41,NW,315,1.0,-999.0,57,0.00,,,0.00,Wunderground v.1.15,2013-03-06 04:14:00,
2013-03-05 22:19:00,39.9,25.9,30.41,NW,315,1.0,-999.0,57,0.00,,,0.00,Wunderground v.1.15,2013-03-06 04:19:00,
2013-03-05 22:24:00,39.0,24.6,30.41,NW,315,0.0,-999.0,56,0.00,,,0.00,Wunderground v.1.15,2013-03-06 04:24:00,
2013-03-05 22:29:00,39.0,24.6,30.41,NW,315,0.0,-999.0,56,0.00,,,0.00,Wunderground v.1.15,2013-03-06 04:29:00,
2013-03-05 22:34:00,39.0,24.6,30.41,NW,315,0.0,-999.0,56,0.00,,,0.00,Wunderground v.1.15,2013-03-06 04:34:00,
2013-03-05 22:39:00,38.0,25.3,30.41,NW,315,0.0,-999.0,60,0.00,,,0.00,Wunderground v.1.15,2013-03-06 04:39:00,
2013-03-05 22:44:00,38.0,25.3,30.41,NW,315,0.0,-999.0,60,0.00,,,0.00,Wunderground v.1.15,2013-03-06 04:44:00,
2013-03-05 22:49:00,38.0,25.3,30.41,NW,315,0.0,-999.0,60,0.00,,,0.00,Wunderground v.1.15,2013-03-06 04:49:00,
2013-03-05 22:54:00,37.1,24.9,30.41,NW,315,0.0,-999.0,61,0.00,,,0.00,Wunderground v.1.15,2013-03-06 04:54:00,
2013-03-05 22:59:00,37.1,24.9,30.41,NW,315,0.0,-999.0,61,0.00,,,0.00,Wunderground v.1.15,2013-03-06 04:59:00,
2013-03-05 23:04:00,37.1,24.9,30.41,NW,315,0.0,-999.0,61,0.00,,,0.00,Wunderground v.1.15,2013-03-06 05:04:00,
2013-03-05 23:09:00,36.5,25.1,30.42,NW,315,0.0,-999.0,63,0.00,,,0.00,Wunderground v.1.15,2013-03-06 05:09:00,
2013-03-05 23:14:00,36.5,25.1,30.42,NW,315,0.0,-999.0,63,0.00,,,0.00,Wunderground v.1.15,2013-03-06 05:14:00,
2013-03-05 23:19:00,36.5,25.1,30.42,NW,315,0.0,-999.0,63,0.00,,,0.00,Wunderground v.1.15,2013-03-06 05:19:00,
2013-03-05 23:24:00,37.0,25.6,30.41,NW,315,0.0,-999.0,63,0.00,,,0.00,Wunderground v.1.15,2013-03-06 05:24:00,
2013-03-05 23:29:00,37.0,25.6,30.41,NW,315,0.0,-999.0,63,0.00,,,0.00,Wunderground v.1.15,2013-03-06 05:29:00,
2013-03-05 23:34:00,37.0,25.6,30.41,NW,315,0.0,-999.0,63,0.00,,,0.00,Wunderground v.1.15,2013-03-06 05:34:00,
2013-03-05 23:39:00,37.1,25.7,30.41,NW,315,0.0,-999.0,63,0.00,,,0.00,Wunderground v.1.15,2013-03-06 05:39:00,
2013-03-05 23:44:00,37.1,25.7,30.41,NW,315,0.0,-999.0,63,0.00,,,0.00,Wunderground v.1.15,2013-03-06 05:44:00,
2013-03-05 23:49:00,37.1,25.7,30.41,NW,315,0.0,-999.0,63,0.00,,,0.00,Wunderground v.1.15,2013-03-06 05:49:00,
2013-03-05 23:54:00,36.7,25.7,30.41,NW,315,1.0,-999.0,64,0.00,,,0.00,Wunderground v.1.15,2013-03-06 05:54:00,
2013-03-05 23:59:00,36.7,25.7,30.41,NW,315,1.0,-999.0,64,0.00,,,0.00,Wunderground v.1.15,2013-03-06 05:59:00,